Regional Weather Roundup
Issued by NWS Midland/Odessa, TX

Home | Current Version | Previous Version | Text Only | Print | Product List | Glossary On
Versions: 1 2 3 4 5 6 7 8 9 10 11 12 13 14 15 16 17 18 19 20 21 22 23 24 25 26 27 28 29 30 31 32 33 34 35 36 37 38 39 40 41 42 43 44 45 46 47 48 49 50
000
ASUS44 KMAF 241810
RWRMAF
MIDLAND AREA WEATHER ROUNDUP
NATIONAL WEATHER SERVICE MIDLAND TX
100 PM CDT THU JUL 24 2014

...IN SOUTHWEST TEXAS AND SOUTHEAST NEW MEXICO...

CITY           SKY/WX    TMP DP  RH WIND       PRES   REMARKS
ALPINE         SUNNY     87  51  28 E7        30.29S
ANDREWS        FAIR      92  54  26 E8        30.16F
ARTESIA        SUNNY     90  55  31 SE6       30.18F
BIG SPRING     SUNNY     94  57  28 NE8       30.14F
CARLSBAD       SUNNY     92  53  26 MISG      30.15F
DRYDEN           N/A     97  62  31 MISG      30.08F
FORT STOCKTON  SUNNY     93  56  28 E8        30.14F
GUAD PASS      SUNNY     85  48  27 NE16G22   30.32F
HOBBS          SUNNY     91  52  25 E7        30.20F
MARFA          SUNNY     82  55  39 S8        30.28F
MIDLAND AIRPK  SUNNY     93  54  26 E6        30.14F
MIDLAND INTL   SUNNY     94  54  25 E6        30.13F
ODESSA         SUNNY     93  53  25 CALM      30.15F
PECOS          SUNNY     95  54  25 E5        30.11F
PRESIDIO       FAIR      95  56  26 NE8       30.11F
SEMINOLE       SUNNY     93  51  24 S5        30.18F
SNYDER         SUNNY     92  61  34 E7        30.13F
WINK           SUNNY     96  53  23 E8        30.11F
$$
...OTHER STATIONS IN TEXAS...

CITY           SKY/WX    TMP DP  RH WIND       PRES   REMARKS
ABILENE        MOSUNNY   93  66  40 E8        30.09F
AMARILLO       SUNNY     91  61  36 S12       30.18F
AUSTIN         MOSUNNY   88  71  57 CALM      30.03F
BROWNSVILLE    MOSUNNY   95  70  44 S8        29.98F HX 101
CORPUS CHRISTI PTSUNNY   94  71  47 VRB3      29.99F HX 101
DALLAS FTW     MOSUNNY   90  65  43 VRB7      30.04F
DEL RIO        SUNNY     93  69  45 VRB6      30.01F
EL PASO        MOSUNNY   90  53  28 NE3       30.18F
HOUSTON INT    MOSUNNY   90  73  57 N6        30.01F
LUBBOCK        MOSUNNY   93  60  33 CALM      30.17F
SAN ANGELO     SUNNY     93  63  36 NE10      30.09F
SAN ANTONIO    PTSUNNY   85  72  65 E9        30.05F
WACO           PTSUNNY   89  70  53 SW5       30.03F
WICHITA FALLS  NOT AVBL
$$
...OTHER LOCATIONS IN NEW MEXICO...

CITY           SKY/WX    TMP DP  RH WIND       PRES   REMARKS
ALAMAGORDO     MOSUNNY   90  50  25 SW9G16    30.21F
ALBUQUERQUE    MOSUNNY   85  47  26 VRB5      30.30F
CANNON AFB     SUNNY     87  58  37 SW10      30.23F
CLOVIS         SUNNY     90  57  33 W12       30.25
HOLLOMAN AFB   MOSUNNY   90  51  26 S3        30.19F
ROSWELL        SUNNY     93  53  25 S12       30.18F
RUIDOSO        LGT RAIN  79  45  29 MISG      30.43F
SANTA FE       SUNNY     81  49  32 SW10      30.36F
TRUTH OR CONSE SUNNY     87  49  26 S12       30.26F
TUCUMCARI      SUNNY     94  53  25 SW14G21   30.17F
$$


USA.gov is the U.S. government's official web portal to all federal, state and local government web resources and services.